Voltar ao catálogo

STARLINK-37352

AtivoComunicaçõesVLEO
NORAD 69524·PAYLOAD·🇺🇸 United States

Lançado Jun 12, 2026 de Cape Canaveral Space Force Station

Loading…

Próximas Passagens (próximas 24 horas)

TLE

AtualizadoSource: CelesTrak SupGP

Época: Sep 14, 2026, 23:26 UTC

1 69524C 26133S   26257.97687500  .00030422  00000+0  89856-3 0  2571
2 69524  53.1566 255.3576 0001262  98.9562  77.3899 15.34384691    15

Acompanhe STARLINK-37352 em tempo real com AllMySat

Download on the App Store